Retour au catalogue

COSMOS 762

ActifNavigationLEO
NORAD 8286·PAYLOAD·🇷🇺 Russia

Lancé Sep 17, 1975 depuis Plesetsk Cosmodrome

Loading…

Prochains Passages (prochaines 24 heures)

TLE

FraisSource: Space-Track

Époque: Sep 14, 2026, 15:26 UTC

1 08286U 75086B   26257.64356355  .00000005  00000-0  13369-3 0  9999
2 08286  74.0091 134.4624 0029815 209.7080 178.0442 12.50907032328561

Suivez COSMOS 762 en temps réel avec AllMySat

Download on the App Store